Voltar ao catálogo

KUIPER-00537

AtivoComunicaçõesLEO
NORAD 69607·PAYLOAD·🇺🇸 United States

Lançado Jun 17, 2026 de Guiana Space Centre

Loading…

Próximas Passagens (próximas 24 horas)

TLE

AtualizadoSource: CelesTrak SupGP

Época: Sep 14, 2026, 22:35 UTC

1 69607C 26140R   26257.94137732  .00002108  00000+0  27592-3 0  2574
2 69607  51.9010 343.6991 0000557 347.9197 283.3632 14.79926243    13

Acompanhe KUIPER-00537 em tempo real com AllMySat

Download on the App Store